PDT,Max TemperatureF,Mean TemperatureF,Min TemperatureF,Max Dew PointF,MeanDew PointF,Min DewpointF,Max Humidity, Mean Humidity, Min Humidity, Max Sea Level PressureIn, Mean Sea Level PressureIn, Min Sea Level PressureIn, Max VisibilityMiles, Mean VisibilityMiles, Min VisibilityMiles, Max Wind SpeedMPH, Mean Wind SpeedMPH, Max Gust SpeedMPH,PrecipitationIn, CloudCover, Events, WindDirDegrees
2012-10-1,84,58,32,29,24,18,52,32,12,30.30,30.20,30.09,10,10,5,14,4,17,0.00,0,,297
2012-10-2,80,57,34,37,20,1,70,38,5,30.12,30.07,30.01,10,10,9,16,6,21,0.00,0,,166
2012-10-3,59,43,27,23,16,11,54,35,16,30.36,30.26,30.14,10,10,5,17,9,24,0.00,2,,318
2012-10-4,60,39,18,24,19,16,84,53,21,30.30,30.27,30.22,10,10,10,18,6,23,0.00,0,,307
2012-10-5,60,40,19,17,14,10,68,41,14,30.33,30.29,30.23,10,10,10,17,6,21,0.00,0,,314
2012-10-6,63,40,16,18,13,10,62,38,14,30.33,30.25,30.17,10,10,10,15,5,18,0.00,0,,286
2012-10-7,71,45,19,17,12,8,57,34,11,30.23,30.12,30.00,10,10,10,14,4,16,0.00,0,,218
2012-10-8,75,49,22,20,13,9,50,30,9,30.03,29.99,29.91,10,10,10,14,5,16,0.00,0,,168
2012-10-9,71,51,30,30,25,20,63,42,20,30.11,30.04,30.00,10,10,10,13,4,16,0.00,0,,248
2012-10-10,76,50,24,29,24,18,75,44,12,30.04,29.96,29.87,10,10,8,9,2,13,0.00,0,,158
2012-10-11,74,51,27,29,26,22,72,44,16,29.99,29.91,29.82,10,10,10,9,4,12,0.00,0,,201
2012-10-12,68,47,26,45,30,21,80,50,19,30.05,29.92,29.84,10,10,10,16,5,20,0.02,3,Rain,84
2012-10-13,68,54,39,46,43,39,96,69,42,30.25,30.20,30.09,10,10,10,14,4,17,T,3,Rain,66
2012-10-14,67,54,40,45,40,37,82,60,37,30.21,30.10,29.97,10,10,10,21,8,25,T,1,,166
2012-10-15,69,61,53,56,51,45,93,73,53,29.98,29.90,29.75,10,9,4,24,12,31,0.91,7,Rain,193
2012-10-16,59,46,32,56,37,30,93,68,43,30.26,30.05,29.71,10,10,7,28,13,36,0.02,1,Rain,296
2012-10-17,61,45,28,34,30,26,92,61,29,30.31,30.27,30.20,10,10,10,9,3,10,0.00,0,,138
2012-10-18,75,51,26,40,31,24,92,54,16,30.28,30.10,29.96,10,10,10,12,3,17,0.00,0,,207
2012-10-19,66,57,48,52,41,33,83,62,40,29.98,29.87,29.78,10,10,10,26,9,36,0.01,7,Rain,223
2012-10-20,52,39,26,37,29,23,92,64,36,29.94,29.88,29.82,10,10,10,23,10,29,0.00,2,,298
2012-10-21,49,34,19,33,26,18,92,66,39,29.94,29.86,29.73,10,10,10,20,4,35,T,4,,154
2012-10-22,47,40,32,36,32,25,100,71,42,29.72,29.61,29.53,10,10,9,21,4,30,0.11,6,Rain,273
2012-10-23,49,38,27,31,25,20,92,63,34,29.91,29.83,29.68,10,10,7,21,7,26,0.01,3,Rain,192
2012-10-24,48,38,28,34,28,23,92,65,38,30.18,29.97,29.85,10,10,10,15,4,18,0.11,3,Rain,198
2012-10-25,50,38,26,27,26,23,92,64,36,30.41,30.34,30.19,10,10,10,8,3,9,0.00,2,,140
2012-10-26,60,45,30,35,30,24,82,61,39,30.35,30.19,30.10,10,10,10,28,7,33,0.00,3,,150
2012-10-27,60,45,30,46,38,28,82,61,39,30.14,30.07,29.99,10,10,10,28,7,33,0.00,5,Rain,99
2012-10-28,63,58,53,53,48,44,86,76,65,30.01,29.96,29.90,10,10,10,20,9,28,0.02,6,Rain,210
2012-10-29,65,54,43,52,45,41,82,65,48,30.08,30.00,29.90,10,10,10,17,6,23,0.02,5,Rain,156
2012-10-30,68,58,47,42,40,31,80,57,33,30.03,29.92,29.80,10,10,10,18,8,24,0.00,1,,181
2012-10-31,64,57,49,42,33,27,41,35,28,29.81,29.76,29.67,10,10,10,24,9,29,0.10,3,Rain,186